This is the latest recevied weather packets stored in our database for station/object DL5TW-13. If no packets are shown the sender has not sent any weather packets the latest 10 day(s).
| Time | Temp. | Humidity | Pressure | Rain* | Wind** | Luminosity | Snow |
|---|---|---|---|---|---|---|---|
| 1777786909 | 16.67° C | 57% | 1010 hPa | 0 mm | - | - | - |
| 1777786609 | 16.67° C | 57% | 1010 hPa | 0 mm | - | - | - |
| 1777786309 | 16.11° C | 58% | 1009.9 hPa | 0 mm | - | - | - |
| 1777786008 | 15° C | 60% | 1009.9 hPa | 0 mm | - | - | - |
| 1777785708 | 14.44° C | 61% | 1010 hPa | 0 mm | - | - | - |
| 1777785408 | 14.44° C | 61% | 1010.1 hPa | 0 mm | - | - | - |
| 1777785108 | 13.89° C | 66% | 1010 hPa | 0 mm | - | - | - |
| 1777784807 | 13.89° C | 66% | 1010 hPa | 0 mm | - | - | - |
| 1777784507 | 12.78° C | 66% | 1009.9 hPa | 0 mm | - | - | - |
| 1777784207 | 12.22° C | 69% | 1010 hPa | 0 mm | - | - | - |
| 1777783906 | 11.67° C | 69% | 1010.1 hPa | 0 mm | - | - | - |
| 1777783606 | 10° C | 71% | 1010.1 hPa | 0 mm | - | - | - |
| 1777783306 | 10° C | 71% | 1010.1 hPa | 0 mm | - | - | - |
| 1777783005 | 9.44° C | 71% | 1010.2 hPa | 0 mm | - | - | - |
| 1777782705 | 9.44° C | 72% | 1010.2 hPa | 0 mm | - | - | - |
| 1777782405 | 8.89° C | 72% | 1010.2 hPa | 0 mm | - | - | - |
| 1777782105 | 8.89° C | 73% | 1010.2 hPa | 0 mm | - | - | - |
| 1777781804 | 8.33° C | 73% | 1010.1 hPa | 0 mm | - | - | - |
| 1777781504 | 8.33° C | 73% | 1010.1 hPa | 0 mm | - | - | - |
| 1777781204 | 7.78° C | 73% | 1010.2 hPa | 0 mm | - | - | - |
| 1777780903 | 7.78° C | 74% | 1010.1 hPa | 0 mm | - | - | - |
| 1777780603 | 7.78° C | 74% | 1010.3 hPa | 0 mm | - | - | - |
| 1777780303 | 7.78° C | 73% | 1010.1 hPa | 0 mm | - | - | - |
| 1777780003 | 7.22° C | 73% | 1010.1 hPa | 0 mm | - | - | - |
| 1777779702 | 7.22° C | 73% | 1010.1 hPa | 0 mm | - | - | - |
* Rain latest hour (hover to see other rain measurements)
** Current wind speed in m/s (hover to see current wind gust speed)